This is the latest recevied weather packets stored in our database for station/object DB0MOD. If no packets are shown the sender has not sent any weather packets the latest 10 day(s).
| Time | Temp. | Humidity | Pressure | Rain* | Wind** | Luminosity | Snow |
|---|---|---|---|---|---|---|---|
| 1777920246 | 8.89° C | 10% | 1013.1 hPa | 0 mm | - | - | - |
| 1777919946 | 8.89° C | 10% | 1013.1 hPa | 0 mm | - | - | - |
| 1777919646 | 8.89° C | 10% | 1013.1 hPa | 0 mm | - | - | - |
| 1777919346 | 8.89° C | 10% | 1013.1 hPa | 0 mm | - | - | - |
| 1777919046 | 9.44° C | 10% | 1013.5 hPa | 0 mm | - | - | - |
| 1777918746 | 9.44° C | 10% | 1013.3 hPa | 0 mm | - | - | - |
| 1777918446 | 10° C | 10% | 1013.3 hPa | 0 mm | - | - | - |
| 1777918146 | 10.56° C | 10% | 1013.3 hPa | 0 mm | - | - | - |
| 1777917846 | 11.11° C | 10% | 1013.4 hPa | 0 mm | - | - | - |
| 1777917546 | 12.22° C | 10% | 1013.6 hPa | 0 mm | - | - | - |
| 1777917246 | 13.89° C | 10% | 1013.6 hPa | 0 mm | - | - | - |
| 1777916946 | 15.56° C | 21% | 1013 hPa | 0 mm | - | - | - |
| 1777916648 | 17.22° C | 41% | 1013.2 hPa | 0 mm | - | - | - |
| 1777916346 | 17.78° C | 46% | 1013.2 hPa | 0 mm | - | - | - |
| 1777916046 | 18.33° C | 46% | 1013 hPa | 0 mm | - | - | - |
| 1777915746 | 18.33° C | 46% | 1013 hPa | 0 mm | - | - | - |
| 1777915446 | 18.89° C | 46% | 1012.9 hPa | 0 mm | - | - | - |
| 1777915146 | 18.89° C | 46% | 1012.9 hPa | 0 mm | - | - | - |
| 1777914846 | 18.89° C | 45% | 1013 hPa | 0 mm | - | - | - |
| 1777914546 | 19.44° C | 45% | 1012.9 hPa | 0 mm | - | - | - |
| 1777914246 | 19.44° C | 45% | 1013.1 hPa | 0 mm | - | - | - |
| 1777913946 | 19.44° C | 45% | 1013 hPa | 0 mm | - | - | - |
| 1777913646 | 20° C | 45% | 1013.2 hPa | 0 mm | - | - | - |
| 1777913346 | 20° C | 45% | 1013.3 hPa | 0 mm | - | - | - |
| 1777913046 | 20° C | 45% | 1013.2 hPa | 0 mm | - | - | - |
* Rain latest hour (hover to see other rain measurements)
** Current wind speed in m/s (hover to see current wind gust speed)